Regional Weather Roundup
Issued by NWS

Home | Current Version | Previous Version | Text Only | Print | Product List | Glossary On
Versions: 1 2 3 4 5 6 7 8 9 10 11 12 13 14 15 16 17 18 19 20 21 22 23 24 25 26 27 28 29 30 31 32 33 34 35 36 37 38 39 40 41 42 43 44 45 46 47 48 49 50
000
ASUS43 KDTX 010901
RWRMI
MICHIGAN HOURLY REGIONAL WEATHER ROUNDUP
NATIONAL WEATHER SERVICE DETROIT/PONTIAC MI
500 AM EDT SAT AUG 01 2015

NOTE: "FAIR" INDICATES FEW OR NO CLOUDS BELOW 12,000 FEET WITH NO
SIGNIFICANT WEATHER AND/OR OBSTRUCTION TO VISIBILITY.

MIZ047>049-052>055-059>063-066>070-074>076-081>083-011000-
SOUTHEAST LOWER MICHIGAN

CITY           SKY/WX    TMP DP  RH WIND       PRES   REMARKS
ADRIAN         CLEAR     61  53  75 NW6       29.93S
ALMA           CLEAR     56  56  97 CALM      29.91S
ANN ARBOR      CLEAR     59  53  80 W6        29.91S
BAD AXE        CLEAR     52  51  95 CALM      29.88S
CARO           CLEAR     54  53  98 CALM      29.88S
DETROIT CITY   CLEAR     67  53  61 W6        29.89S
DETROIT        PTCLDY    64  54  69 W7        29.91R
FLINT          CLEAR     62  55  77 W3        29.90S
GROSSE ILE     CLEAR     63  55  77 W5        29.89S
HILLSDALE      CLEAR     63  57  81 W6        29.94F
HOWELL         MOCLDY    59  55  86 W7        29.91S

CITY           SKY/WX    TMP DP  RH WIND       PRES   REMARKS
JACKSON        CLEAR     58  54  86 CALM      29.93S
LAMBERTVILLE   CLEAR     63  54  73 CALM      29.92S
LANSING        CLEAR     62  56  80 W3        29.92S
LAPEER         FAIR      54  54  99 CALM      29.90R
MASON          CLEAR     56  53  88 CALM      29.92S
MONROE         CLEAR     58  55  88 W5        29.90S
PONTIAC        CLEAR     62  55  77 W5        29.90S
PORT HOPE        N/A     59  57  93 SW6       29.85S
PORT HURON     CLEAR     55  55 100 CALM      29.88S
TRI CITIES     CLEAR     60  55  83 W10       29.90R
MIDLAND        FAIR      54  53  97 CALM      29.88S
TROY           CLEAR     67  55  65 W7        29.91S
SAGINAW HB     CLEAR     61  55  82 W3        29.88S
$$
MIZ043>046-050>051-056>058-064>065-071>073-077>080-011000-
SOUTHWEST LOWER MICHIGAN

CITY           SKY/WX    TMP DP  RH WIND       PRES   REMARKS
BATTLE CREEK   CLEAR     64  58  80 W7        29.94S
BENTON HARBOR  CLEAR     68  60  75 W5        29.95S
BIG RAPIDS     CLEAR     55  55  97 CALM      29.91S FOG
COLDWATER      CLEAR     57  54  88 SW5       29.95S
FREMONT        FAIR      57  55  94 CALM      29.92S
HOLLAND        CLEAR     65  59  81 W3        29.94S
GRAND RAPIDS   CLEAR     62  58  86 W6        29.93S
IONIA          FAIR      60  56  88 W6        29.92S
KALAMAZOO      CLEAR     64  57  78 W5        29.95S
LUDINGTON      MOCLDY    71  62  74 CALM      29.91S
MARSHALL       CLEAR     57  55  90 CALM      29.93S
MOUNT PLEASANT CLEAR     60  56  86 CALM      29.89S
MUSKEGON       CLEAR     67  59  75 NW5       29.92S
SOUTH HAVEN    CLEAR     68  59  73 CALM      29.95S
$$
MIZ016>042-011000-
NORTHERN LOWER MICHIGAN

CITY           SKY/WX    TMP DP  RH WIND       PRES   REMARKS
ALPENA         CLEAR     58  55  90 SW3       29.84S
BEAVER ISLAND  CLEAR     63  57  80 W6        29.83S
BELLAIRE       CLEAR     52  51  95 CALM      29.86F
CADILLAC       CLEAR     50  48  93 CALM      29.90S
CHARLEVOIX     CLEAR     63  60  90 SW6       29.87S
FRANKFORT      CLOUDY    67  61  79 W9        29.88S
GAYLORD        CLEAR     56  54  93 SW6       29.87S
GRAYLING       CLEAR     56  55  95 W3        29.88S
HARBOR SPRINGS CLEAR     55  54  94 CALM      29.84S
HOUGHTON LAKE  CLEAR     62  57  83 W9        29.89S
MANISTEE       PTCLDY    54  50  87 E5        29.90S
OSCODA         CLEAR     55  54  97 CALM      29.85S
PELLSTON       CLEAR     49  47  93 CALM      29.83F
ROGERS CITY    CLEAR     58  55  89 SW6       29.84S
TRAVERSE CITY  CLEAR     62  57  83 SW3       29.85S
$$
MIZ007>008-015-011000-
EASTERN UPPER MICHIGAN

CITY           SKY/WX    TMP DP  RH WIND       PRES   REMARKS
KINROSS        CLEAR     54  52  94 W6        29.82S
MACKINAC ISLAN CLEAR     63  58  83 W5        29.82S
NEWBERRY       CLEAR     55  53  91 W7        29.82S
S. S. MARIE    CLEAR     57  54  89 NW6       29.80F
MUNISING         N/A     57  52  83 S6        29.83R
$$
MIZ004>006-011>014-085-011000-
CENTRAL UPPER MICHIGAN

CITY           SKY/WX    TMP DP  RH WIND       PRES   REMARKS
ESCANABA       PTCLDY    55  52  88 W6        29.85S
MENOMINEE      PTCLDY    61  52  72 W3        29.88S
SAWYER-GWINN   CLOUDY    59  52  79 NW10      29.86R
$$
MIZ001>003-009>011-084-011000-
WESTERN UPPER MICHIGAN

CITY           SKY/WX    TMP DP  RH WIND       PRES   REMARKS
IRON MOUNTAIN  CLEAR     58  54  86 W5        29.88S
HOUGHTON       MOCLDY    59  54  83 W10       29.85R
COPPER HARBOR    N/A     63  52  67 VRB7      29.80F
IRONWOOD       CLEAR     55  52  88 W7        29.89S
$$

ABBREVIATIONS USED IN REMARKS
   TC - TEMPERATURE IN CELSIUS
  WCI - WIND CHILL INDEX
   HX - HEAT INDEX
  VSB - VISIBILITY




USA.gov is the U.S. government's official web portal to all federal, state and local government web resources and services.